Location: Mentone
(34.5413°N, 85.5351°W)
Time: 11:48:06
(UTC-05:00)

Okean O Rocket - Visible Passes

Search period start: 29 July 2014 00:00
Search period end: 08 August 2014 00:00
Orbit: 626 x 647 km, 98.0° (Epoch: 29 July)

Date Brightness Start Highest point End Pass type
(mag) Time Alt. Az. Time Alt. Az. Time Alt. Az.
29 Jul 1.5 03:50:43 10° N 03:55:10 82° WNW 03:56:17 50° SSW visible
30 Jul 4.1 02:38:41 10° ENE 02:40:49 13° E 02:41:19 13° E visible
30 Jul 2.1 04:13:14 10° N 04:17:25 44° WNW 04:18:49 33° WSW visible
31 Jul 3.4 02:59:43 10° NE 03:03:18 24° E 03:03:50 23° ESE visible
31 Jul 2.9 04:36:02 10° NNW 04:39:37 25° WNW 04:41:20 19° WSW visible
01 Aug 2.4 03:21:31 10° NNE 03:25:44 44° E 03:26:21 41° ESE visible
01 Aug 3.5 04:59:25 10° NW 05:01:44 14° WNW 05:03:51 11° W visible
02 Aug 1.5 03:43:40 10° NNE 03:48:05 83° ESE 03:48:52 60° S visible
03 Aug 4.4 02:32:38 10° ENE 02:33:40 11° E 02:33:53 11° E visible
03 Aug 1.8 04:06:05 10° N 04:10:22 53° WNW 04:11:23 43° WSW visible
04 Aug 3.7 02:52:57 10° NE 02:56:11 20° E 02:56:24 20° E visible
04 Aug 2.6 04:28:47 10° NNW 04:32:35 29° WNW 04:33:54 25° WSW visible
05 Aug 2.8 03:14:34 10° NNE 03:18:37 36° E 03:18:55 35° ESE visible
05 Aug 3.3 04:51:55 10° NNW 04:54:44 17° WNW 04:56:25 14° W visible
06 Aug 1.7 03:36:37 10° NNE 03:41:00 68° E 03:41:26 63° SE visible
07 Aug 1.6 03:58:57 10° N 04:03:18 65° WNW 04:03:57 56° WSW visible
